Location: Azul
(36.7830°S, 59.8500°W)
Time: 15:49:07
(UTC-03:00)

CUBEBUG 2 - Visible Passes

Search period start: 02 October 2022 00:00
Search period end: 12 October 2022 00:00
Orbit: 582 x 693 km, 97.7° (Epoch: 01 October)

Date Brightness Start Highest point End Pass type
(mag) Time Alt. Az. Time Alt. Az. Time Alt. Az.
09 Oct ? 02:35:07 10° S 02:35:07 10° S 02:35:08 10° S visible
10 Oct ? 02:57:56 11° S 02:57:56 11° S 02:58:08 10° S visible
11 Oct ? 03:20:46 11° SSW 03:20:46 11° SSW 03:20:53 10° SSW visible
